Iridium 98 - Orbit

View from above orbital plane
View from above orbital plane
View from above satellite
View from above satellite

Ground track
Ground track

The orbit data is extracted from the following two-line orbital elements,

1 27451U 02031B   13142.43646591  .00000399  00000-0  11338-3 0  8106
2 27451 086.4441 283.7817 0004334 069.8504 346.3167 14.42950175577816
Epoch (UTC): 22 May 2013 10:28:30
Eccentricity: 0.0004334
inclination: 86.4441°
perigee height: 745 km
apogee height: 752 km
right ascension of ascending node: 283.7817°
argument of perigee: 69.8504°
revolutions per day: 14.42950175
mean anomaly at epoch: 346.3167°
orbit number at epoch: 57781

The dashed part of the orbit path shows where the satellite is in the earth's shadow,  

Developed and maintained by Chris Peat, Heavens-Above GmbH. Please read the updated FAQ before sending e-mail. Imprint. DLR